Regional Weather Roundup
Issued by NWS Wakefield, VA

Home | Current Version | Previous Version | Text Only | Print | Product List | Glossary Off
Versions: 1 2 3 4 5 6 7 8 9 10 11 12 13 14 15 16 17 18 19 20 21 22 23 24 25 26 27 28 29 30 31 32 33 34 35 36 37 38 39 40 41 42 43 44 45 46 47

000
ASUS41 KAKQ 010910
RWRAKQ

REGIONAL WEATHER ROUNDUP
NATIONAL WEATHER SERVICE WAKEFIELD VA
500 AM EDT WED OCT 01 2014

Note: "fair" indicates few or no clouds below 12,000 feet with no
significant weather and/or obstructions to visibility. * = Denotes
station may not report precipitation (e.g., rain,snow,etc.),
thunder or fog.

VAZ042-051-052>054-056-011000-
NORTHERN VIRGINIA

CITY           SKY/WX    TMP DP  RH WIND       PRES   REMARKS
WASH NATIONAL  CLOUDY    67  61  81 NE8       29.96S
DULLES         LGT RAIN  63  62  97 E5        29.96S FOG
FORT BELVOIR   CLOUDY    65  62  89 CALM      29.96S
QUANTICO       CLOUDY    65  63  93 N8        29.96S
FREDERICKSBRG* MOCLDY    62  62 100 CALM      29.94S FOG
STAFFORD*      MOCLDY    61  61 100 CALM      29.99R FOG
WARRENTON      CLOUDY    64  64 100 CALM      29.95S FOG
CULPEPER*      FOG       61  61 100 CALM      29.97R VSB 1/2
MANASSAS*      CLOUDY    64  63  94 CALM      29.96R
LEESBURG*      LGT RAIN  63  63 100 CALM      29.98R
WINCHESTER     RAIN      61  61 100 CALM      29.97S
FRONT ROYAL*   CLOUDY    61  61 100 CALM      29.96S
LURAY*         CLOUDY    63  63 100 CALM      29.97F FOG
$$

VAZ048-049-060>072-079>083-011000-
CENTRAL AND SOUTH CENTRAL VIRGINIA...AND NORTH CENTRAL NORTH CAROLINA

CITY           SKY/WX    TMP DP  RH WIND       PRES   REMARKS
RICHMOND       PTCLDY    61  58  90 N3        29.94R FOG
CHESTERFIELD*  MOSUNNY  N/A N/A N/A CALM      29.95R
PETERSBURG*    FOG       55  54  97 CALM      29.95R VSB 1/4
HANOVER        MOCLDY    59  59 100 CALM      29.96R FOG
TAPPAHANNOCK*  FOG       56  55  94 CALM      29.95R VSB 1
CHARLOTTSVILLE CLOUDY    63  61  93 CALM      29.95S FOG
ORANGE*        FOG       61  59  94 CALM      29.97R VSB 1/4
LOUISA*        FOG       57  57 100 CALM      29.94S VSB 1/2
FARMVILLE*     FOG       57  57 100 CALM      29.93S VSB 1/4
CREWE*         PTSUNNY   56  55  95 CALM      29.95R
FORT PICKETT*  CLOUDY    57  56  97 NW3       29.95R VSB 1/4
LUNENBURG*     CLOUDY   -37 -37  97 CALM      29.94S VSB 1/4
SOUTH HILL*    PTCLDY    57  57 100 CALM      29.99S FOG
LAWRENCEVILLE*   N/A     59  59 100 CALM      29.93S VSB 3/4
ROANOKE RAPIDS FOG       57  57 100 CALM      29.94R VSB 1/4
RALEIGH        PTCLDY    57  55  93 CALM      29.95R FOG
$$

VAZ088>098-011000-
SOUTHEAST VIRGINIA

CITY           SKY/WX    TMP DP  RH WIND       PRES   REMARKS
NORFOLK        CLEAR     67  62  84 NE7       29.91S
VIRGINIA BEACH PTCLDY    63  60  90 N3        29.90S
NORFOLK NAVAL  MOCLDY    69  64  84 N8        29.93R
WEST POINT*    MOCLDY    60  58  94 CALM      29.95S
NEWPORT NEWS   PTCLDY    63  59  87 NW3       29.93R FOG
LANGLEY AFB    MOCLDY    61  61 100 NW3       29.93R
FORT EUSTIS    PTCLDY    64 N/A N/A N2        29.92R
WILLIAMSBURG*  CLEAR     63  63 100 CALM      29.94R
HR EXEC AP*    CLOUDY    54  52  94 CALM      29.94S VSB 1/4
FRANKLIN*      CLOUDY    59 N/A N/A CALM      29.94R VSB 1/4
WAKEFIELD      FOG       59  57  93 CALM      29.93S VSB 1/2
$$

VAZ020-022-025-037-045-011000-
WEST CENTRAL AND SOUTHWEST VIRGINIA

CITY           SKY/WX    TMP DP  RH WIND       PRES   REMARKS
STAUNTON*      CLOUDY    62  58  86 NE3       29.99R
HOT SPRINGS VA MOCLDY    55  38  53 W6        30.05S
LYNCHBURG      CLOUDY    63  63 100 CALM      29.97R
DANVILLE       FOG       63  61  93 NE3       29.95R VSB 3/4
SOUTH BOSTON*  NOT AVBL
MARTINSVILLE   CLOUDY    55  55 100 CALM      29.98R FOG
ROANOKE        MOCLDY    58  55  90 CALM      29.99R
BLACKSBURG     CLEAR     52  52 100 CALM      30.01R FOG
DUBLIN*        CLEAR     52  52 100 CALM      30.00S FOG
MARION*        CLEAR     51  50  96 CALM      30.04R FOG
HILLSVILLE*    CLEAR     52  51  97 SW5       30.01S
RICHLANDS*     SUNNY     59  55  86 CALM      30.01S
WISE*          CLEAR     55  52  88 CALM      30.02S
ABINGDON*      CLEAR     54  53  96 E5        30.00S
$$

MDZ021>025-VAZ099-100-011000-
SOUTHERN MARYLAND AND THE DELMARVA PENINSULA

CITY           SKY/WX    TMP DP  RH WIND       PRES   REMARKS
PATUXENT RIVER PTCLDY    64  61  90 NE6       29.94S
BAY BRIDGE APT   N/A     63  61  94 NE6       29.96S
LEONARDTOWN    MOCLDY    63  61  94 CALM      29.96S
DOVER          MOCLDY    62  62 100 N7        29.93S
GEORGETOWN     CLOUDY    64  62  93 VRB6      29.95R
EASTON         PTCLDY    62  62 100 NE3       29.99S
CAMBRIDGE      CLOUDY    63  61  94 N5        29.94S
SALISBURY      CLEAR     63  60  90 N6        29.94R
OCEAN CITY     PTCLDY   N/A N/A N/A NW6       29.93R HAZE
WALLOPS ISLAND CLEAR     62  60  93 N6        29.93S
ACCOMACK*      CLEAR     61  59  94 NE5       29.92S
$$

NCZ012>017-030>032-011000-
EASTERN NORTH CAROLINA

CITY           SKY/WX    TMP DP  RH WIND       PRES   REMARKS
ELIZABETH CITY CLEAR     64  63  96 N7        29.91R
AHOSKIE*       CLEAR     55  54  97 CALM      29.94R
EDENTON*       CLEAR     59  58  97 CALM      29.92R FOG
CURRITUCK*     CLEAR     63  62  94 CALM      29.91S
KILL DEVIL HLS CLEAR     69  63  82 NE6       29.88S
MANTEO         CLEAR     68  64  85 N12       29.90R
CAPE HATTERAS  PTCLDY    68  66  93 NE8       29.87S
TARBORO*       FOG       57  56  97 CALM      29.94R VSB 1/4
GOLDSBORO      CLEAR     60  60  98 CALM      29.91R
WASHINGTON     CLEAR     60  60  98 CALM      29.92R
GREENVILLE     FOG       59  59 100 CALM      29.94S VSB 1/2
NEW BERN       CLEAR     64  61  90 N5        29.92R
WILMINGTON     MOCLDY    63  62  97 N3        29.90R FOG
$$

VAZ048-011000-
ELSEWHERE

CITY           SKY/WX    TMP DP  RH WIND       PRES   REMARKS
HARRISBURG PA  CLOUDY    60  59  96 NE5       29.97S
BALTIMORE      PTCLDY    63  60  90 NE5       29.96S
ANNAPOLIS      PTCLDY    65  61  87 NE5       29.96S
ANDREWS AFB    CLOUDY    63  63  99 NE6       29.95S
WILMINGTON DE  MOCLDY    62  59  90 N6        29.98S
PHILADELPHIA   MOCLDY    64  58  80 NE9       29.97F
WILDWOOD NJ*   CLOUDY    63  57  82 N8        29.95R
ATLANTIC CITY  LGT RAIN  62  62 100 N10       29.95R
HENDERSON NC   FOG       60  59  96 CALM      29.95R VSB 1/4
GREENSBORO     CLEAR     61  60  97 CALM      29.93S
ROCKY MOUNT    FOG       57  57 100 N3        29.93S VSB 1/2
FAYETTEVILLE   FOG       60  59  96 N3        29.92R VSB 1/4
CHARLOTTE      CLEAR     62  59  90 CALM      29.93S
$$

VAZ100-011000-
MARINE

STATION/POSITION TIME  TEMP    WIND        PRES    WAVE   SWELL
                       AIR SEA DIR/SP/G            HT/PER HT/PER
                 (UTC) (F)     (DEG/KT/KT) (MB)    (FT/S) (FT/S)
44066 TX TWR #4  0900   66 69   30/ 19/ 23 1012.2S   5/ 6   2/13
CAPE MAY NJ      0900   62 74   30/  2/  5 1013.2R
LEWES DE         0900   66 70   40/ 14/ 16 1013.3S
15NM E FENWICK I 0900   68 70              1012.6F   3/ 6
OCEAN-CITY-INLET 0900   66 72  360/  8/ 10 1012.8S
WACHAPREAGUE VA  0900   62 74  360/  3/  5 1013.1S
THOMAS POINT MD  0900   64 72   50/ 11/ 12 1015.3F
GOOSES REEF MD   0900   66      60/ 10/ 12 1014.6S
COVE POINT MD    0900   65      60/  8/ 10 1013.9S
SOLOMONS ISLAND  0900      72                N/A
BISHOPS HEAD MD  0900   65 72   30/ 11/ 13 1013.3S
PINEY POINT MD   0900           70/  5/  6   N/A
POTOMAC MD       0900   68      50/  8/ 10 1013.0S
CAMBRIDGE MD     0900   64 71   40/  7/  9 1013.9F
LEWISETTA VA     0900   68 72   60/  8/ 10 1013.4R
RAPPAHANNOCK LGT 0900           30/ 12/ 13 1013.6R
STINGRAY PT      0900   69      30/  8/  8   N/A
YORK RVR RNG VA  0900   69      20/  7/  8 1012.6R
YORKTOWN VA      0900   66 73  330/  7/  8 1013.0R
JAMESTOWN VA     0900   63      10/  4/  4   N/A
DOMINION TERM VA 0900   67      CALM  /  2 1013.0R
KIPTOPEKE VA     0900      76   40/  5/  6   N/A
CHES BAY BRIDGE  0900   69 72   20/  9/ 10 1012.2F
CHESAPEAKE LGHT  0800   69      30/ 13/ 15 1013.1F
WILLOUBY STN VA  0900   69      40/  9/  9 1011.6S
S CRANEY ISL VA  0900           10/  4/  6 1012.7R
CAPE HENRY BUOY  0900      73                N/A     3/13   2/13
1ST LANDING BUOY 0900   70      30/ 10/ 12 1012.5S
CAPE CHARLES BUO 0900      72                N/A     2/14   2/14
OFFSHORE WE BUOY 0900      72                N/A     3/ 4   2/13
64NM E OF VA BCH 0900   70 72   10/ 16/ 19 1011.3R   3/ 4   2/14
DUCK PIER NC     0900   71 73   10/ 15/ 17 1011.4S
44100 DUCK FRF   0900      72                N/A     3/13   2/13
44056 DUCK FRF   0900                        N/A     3/ 4   2/13
OREGON INLET NC  0900   70 74   10/ 10/ 14 1011.8S
HATTERAS NC      0900   71 74   20/ 16/ 18 1011.8F
DIAMOND SHLS NC  0900   71     350/ 16/ 19 1011.1R   4/ 7   2/ 8
CAPE LOOKOUT NC  0800   68     360/ 10/ 12 1011.5S
$$



USA.gov is the U.S. government's official web portal to all federal, state and local government web resources and services.